Date String (YYYY-MM-DD hh:mm:ss) UTC,Instrument flags,absolute air pressure of the measurement (hPa),sample flow rate (lpm),inlet stack bypass flow (lpm),air temperature of the measurement (°C),ambient temperature measured by the external sensor (°C),aerosol sample conditioner tube jacket temperature (°C),OPC LED temperature (°C),internal box temperature (°C),relative humidity of the measurement (%),span deviation,mass concentration of particles derived from Lorenz-Mie calculation of OPC scattering (μg/m³),mass concentration of particles derived from Lorenz-Mie calculation of OPC scattering (μg/m³),mass concentration of particles derived from Lorenz-Mie calculation of OPC scattering (μg/m³)
DateTimeUTC,F1_M11,P_M11,Q1_M11,Q2_M11,T1_M11,T2_M11,T3_M11,T4_M11,T5_M11,U1_M11,ZSPAN_M11,X2_M11,X0_M11,X1_M11
2023-12-18 23:00:00,SystemResetWarning,0828.0,5.00,000.00,023.3,022.5,000.0,031.5,024.7,12.0,0000.0,0005.27,0015.13,0004.06
2023-12-18 23:01:00,SystemResetWarning,0828.2,5.00,000.00,023.3,022.5,000.0,031.5,024.7,12.2,0000.0,0005.20,0015.49,0004.00
2023-12-18 23:02:00,SystemResetWarning,0828.2,5.01,000.00,023.3,022.5,000.0,031.5,024.7,12.0,0000.0,0005.16,0015.73,0003.98
2023-12-18 23:03:00,SystemResetWarning,0828.1,5.00,000.00,023.3,022.5,000.0,031.5,024.7,11.8,0000.0,0005.12,0015.67,0003.95
2023-12-18 23:04:00,SystemResetWarning,0828.0,4.99,000.00,023.3,022.5,000.0,031.5,024.7,11.7,0000.0,0005.04,0015.33,0003.91
2023-12-18 23:05:00,SystemResetWarning,0827.8,5.00,000.00,023.3,022.5,000.0,031.5,024.7,11.5,0000.0,0005.04,0014.43,0003.89
2023-12-18 23:06:00,SystemResetWarning,0827.8,5.00,000.00,023.3,022.5,000.0,031.6,024.7,11.3,0000.0,0005.03,0014.49,0003.86
2023-12-18 23:07:00,SystemResetWarning,0827.8,5.00,000.00,023.3,022.6,000.0,031.6,024.8,11.3,0000.0,0004.99,0014.88,0003.83
2023-12-18 23:08:00,SystemResetWarning,0827.9,5.00,000.00,023.3,022.6,000.0,031.6,024.8,11.2,0000.0,0004.91,0014.20,0003.77
2023-12-18 23:09:00,SystemResetWarning,0827.9,5.00,000.00,023.3,022.6,000.0,031.6,024.8,11.3,0000.0,0004.79,0013.35,0003.69
2023-12-18 23:10:00,SystemResetWarning,0828.0,5.00,000.00,023.3,022.5,000.0,031.6,024.8,11.3,0000.0,0004.72,0012.78,0003.66
2023-12-18 23:11:00,SystemResetWarning,0828.0,5.00,000.00,023.3,022.5,000.0,031.6,024.7,11.4,0000.0,0004.73,0013.22,0003.65
2023-12-18 23:12:00,SystemResetWarning,0828.0,4.99,000.00,023.3,022.5,000.0,031.6,024.7,11.5,0000.0,0004.76,0012.54,0003.67
2023-12-18 23:13:00,SystemResetWarning,0827.8,5.00,000.00,023.3,022.5,000.0,031.6,024.7,11.3,0000.0,0004.83,0012.68,0003.72
2023-12-18 23:14:00,SystemResetWarning,0827.7,5.01,000.00,023.4,022.5,000.0,031.6,024.8,11.1,0000.0,0004.89,0012.75,0003.75
2023-12-18 23:15:00,SystemResetWarning,0827.7,5.00,000.00,023.4,022.6,000.0,031.6,024.8,11.1,0000.0,0004.88,0012.86,0003.77
2023-12-18 23:16:00,SystemResetWarning,0827.7,5.00,000.00,023.4,022.6,000.0,031.6,024.8,10.9,0000.0,0004.88,0013.06,0003.78
2023-12-18 23:17:00,SystemResetWarning,0827.8,5.00,000.00,023.4,022.6,000.0,031.6,024.8,10.9,0000.0,0004.86,0012.49,0003.77
2023-12-18 23:18:00,SystemResetWarning,0827.8,4.99,000.00,023.4,022.6,000.0,031.6,024.8,10.8,0000.0,0004.86,0012.31,0003.78
2023-12-18 23:19:00,SystemResetWarning,0827.8,5.00,000.00,023.4,022.6,000.0,031.6,024.8,11.0,0000.0,0004.92,0012.32,0003.82
2023-12-18 23:20:00,SystemResetWarning,0827.8,5.00,000.00,023.4,022.6,000.0,031.6,024.8,10.9,0000.0,0004.97,0012.54,0003.86
2023-12-18 23:21:00,SystemResetWarning,0827.8,5.00,000.00,023.4,022.6,000.0,031.6,024.8,10.8,0000.0,0005.10,0012.65,0003.92
2023-12-18 23:22:00,SystemResetWarning,0827.8,5.00,000.00,023.4,022.6,000.0,031.6,024.8,10.7,0000.0,0005.10,0012.47,0003.94
2023-12-18 23:23:00,SystemResetWarning,0827.8,5.00,000.00,023.4,022.6,000.0,031.6,024.8,10.7,0000.0,0005.12,0013.03,0003.96
2023-12-18 23:24:00,SystemResetWarning,0828.0,5.00,000.00,023.4,022.6,000.0,031.6,024.8,11.1,0000.0,0005.08,0013.08,0003.95
2023-12-18 23:25:00,SystemResetWarning,0827.9,4.99,000.00,023.4,022.6,000.0,031.6,024.8,11.0,0000.0,0005.07,0013.22,0003.95
2023-12-18 23:26:00,SystemResetWarning,0827.8,5.00,000.00,023.4,022.6,000.0,031.6,024.8,10.4,0000.0,0005.08,0013.52,0003.98
2023-12-18 23:27:00,SystemResetWarning,0827.7,5.00,000.00,023.4,022.6,000.0,031.7,024.8,10.3,0000.0,0005.11,0013.81,0004.04
2023-12-18 23:28:00,SystemResetWarning,0827.7,5.01,000.00,023.4,022.6,000.0,031.7,024.7,10.4,0000.0,0005.18,0014.39,0004.12
2023-12-18 23:29:00,SystemResetWarning,0827.7,5.00,000.00,023.4,022.6,000.0,031.7,024.7,10.6,0000.0,0005.15,0013.81,0004.14
2023-12-18 23:30:00,SystemResetWarning,0827.8,5.00,000.00,023.3,022.6,000.0,031.7,024.6,10.8,0000.0,0005.12,0013.70,0004.13
2023-12-18 23:31:00,SystemResetWarning,0827.8,5.00,000.00,023.3,022.6,000.0,031.7,024.6,11.1,0000.0,0005.21,0013.96,0004.19
2023-12-18 23:32:00,SystemResetWarning,0827.8,5.00,000.00,023.3,022.6,000.0,031.7,024.6,11.3,0000.0,0005.26,0015.44,0004.25
2023-12-18 23:33:00,SystemResetWarning,0828.0,5.00,000.00,023.3,022.5,000.0,031.7,024.6,11.6,0000.0,0005.28,0015.62,0004.30
2023-12-18 23:34:00,SystemResetWarning,0827.7,4.99,000.00,023.3,022.5,000.0,031.6,024.6,11.7,0000.0,0005.26,0015.62,0004.34
2023-12-18 23:35:00,SystemResetWarning,0827.8,5.00,000.00,023.3,022.5,000.0,031.6,024.7,11.6,0000.0,0005.31,0015.54,0004.38
2023-12-18 23:36:00,SystemResetWarning,0827.7,5.00,000.00,023.3,022.5,000.0,031.6,024.7,11.3,0000.0,0005.36,0015.49,0004.39
2023-12-18 23:37:00,SystemResetWarning,0827.7,5.00,000.00,023.3,022.5,000.0,031.6,024.6,11.0,0000.0,0005.37,0015.29,0004.39
2023-12-18 23:38:00,SystemResetWarning,0827.8,5.01,000.00,023.3,022.6,000.0,031.6,024.7,11.0,0000.0,0005.34,0015.49,0004.36
2023-12-18 23:39:00,SystemResetWarning,0827.9,4.99,000.00,023.3,022.6,000.0,031.6,024.7,11.2,0000.0,0005.30,0015.42,0004.33
2023-12-18 23:40:00,SystemResetWarning,0828.1,4.99,000.00,023.3,022.5,000.0,031.6,024.7,11.3,0000.0,0005.36,0016.87,0004.36
2023-12-18 23:41:00,SystemResetWarning,0827.9,5.00,000.00,023.3,022.5,000.0,031.6,024.7,11.4,0000.0,0005.41,0017.83,0004.39
2023-12-18 23:42:00,SystemResetWarning,0827.8,5.00,000.00,023.3,022.5,000.0,031.6,024.7,11.2,0000.0,0005.38,0017.69,0004.36
2023-12-18 23:43:00,SystemResetWarning,0827.7,5.00,000.00,023.3,022.5,000.0,031.6,024.7,10.9,0000.0,0005.36,0016.49,0004.34
2023-12-18 23:44:00,SystemResetWarning,0827.7,5.00,000.00,023.3,022.5,000.0,031.6,024.6,10.9,0000.0,0005.37,0016.53,0004.29
2023-12-18 23:45:00,SystemResetWarning,0827.8,5.00,000.00,023.3,022.5,000.0,031.6,024.6,11.1,0000.0,0005.37,0017.10,0004.26
2023-12-18 23:46:00,SystemResetWarning,0827.8,5.00,000.00,023.3,022.5,000.0,031.6,024.6,12.1,0000.0,0005.34,0017.42,0004.22
2023-12-18 23:47:00,SystemResetWarning,0827.9,5.00,000.00,023.3,022.5,000.0,031.6,024.6,11.6,0000.0,0005.34,0017.35,0004.21
2023-12-18 23:48:00,SystemResetWarning,0827.9,4.99,000.00,023.3,022.5,000.0,031.6,024.7,11.3,0000.0,0005.40,0017.80,0004.24
2023-12-18 23:49:00,SystemResetWarning,0827.8,4.99,000.00,023.3,022.5,000.0,031.6,024.7,11.3,0000.0,0005.44,0018.60,0004.29
2023-12-18 23:50:00,SystemResetWarning,0827.7,5.01,000.00,023.3,022.5,000.0,031.6,024.7,11.7,0000.0,0005.55,0019.67,0004.34
2023-12-18 23:51:00,SystemResetWarning,0827.7,5.01,000.00,023.3,022.5,000.0,031.6,024.7,11.6,0000.0,0005.51,0018.91,0004.32
2023-12-18 23:52:00,SystemResetWarning,0827.7,5.00,000.00,023.3,022.5,000.0,031.6,024.7,11.4,0000.0,0005.46,0018.17,0004.30
2023-12-18 23:53:00,SystemResetWarning,0827.7,4.99,000.00,023.3,022.5,000.0,031.6,024.7,11.4,0000.0,0005.42,0017.94,0004.28
2023-12-18 23:54:00,SystemResetWarning,0827.7,4.99,000.00,023.3,022.5,000.0,031.6,024.7,11.3,0000.0,0005.35,0017.31,0004.24
2023-12-18 23:55:00,SystemResetWarning,0827.7,5.00,000.00,023.3,022.5,000.0,031.6,024.7,11.4,0000.0,0005.26,0016.64,0004.21
2023-12-18 23:56:00,SystemResetWarning,0827.8,5.01,000.00,023.3,022.5,000.0,031.6,024.7,11.6,0000.0,0005.23,0015.53,0004.19
2023-12-18 23:57:00,SystemResetWarning,0827.8,5.01,000.00,023.3,022.5,000.0,031.6,024.7,11.5,0000.0,0005.25,0015.13,0004.18
2023-12-18 23:58:00,SystemResetWarning,0827.7,4.99,000.00,023.3,022.5,000.0,031.6,024.7,11.3,0000.0,0005.23,0014.86,0004.17
2023-12-18 23:59:00,SystemResetWarning,0827.8,4.99,000.00,023.3,022.5,000.0,031.6,024.7,11.2,0000.0,0005.15,0014.29,0004.14
